FW4729 Weather Reports


Display with metric or nautical units.
time (UTC)temp
F
wind
direction
speed
MPH
gust
MPH
rain 1hr
in
rain 24hr
in
rain mn
in
humidity
%
barometer
mb
20260506190048 66 309 4.0 12.0 0.00 0.00 0.00 67 1020.1
20260506184546 66 267 3.0 9.0 0.00 0.00 0.00 67 1020.3
20260506183044 65 292 4.0 11.0 0.00 0.00 0.00 67 1020.3
20260506181548 66 294 5.0 11.0 0.00 0.00 0.00 67 1020.6
20260506180039 66 312 2.0 10.0 0.00 0.00 0.00 68 1020.4
20260506174539 66 285 3.0 8.0 0.00 0.00 0.00 67 1020.4
20260506173044 66 276 1.0 8.0 0.00 0.00 0.00 68 1020.5
20260506171536 65 281 0.0 5.0 0.00 0.00 0.00 69 1020.5
20260506170043 65 293 0.0 5.0 0.00 0.00 0.00 69 1020.4
20260506164546 65 304 0.0 4.0 0.00 0.00 0.00 69 1020.4
20260506163029 63 307 0.0 5.0 0.00 0.00 0.00 71 1020.4
20260506161525 61 304 0.0 1.0 0.00 0.00 0.00 75 1020.5
20260506160023 61 304 0.0 3.0 0.00 0.00 0.00 76 1020.7
20260506154520 59 304 0.0 4.0 0.00 0.00 0.00 78 1020.8
20260506153016 57 304 0.0 3.0 0.00 0.00 0.00 83 1020.9
20260506151514 55 304 0.0 0.0 0.00 0.00 0.00 88 1020.9
20260506150009 53 304 0.0 3.0 0.00 0.00 0.00 89 1021.0
20260506144511 51 304 0.0 0.0 0.00 0.00 0.00 90 1020.9
20260506143004 49 304 0.0 0.0 0.00 0.00 0.00 89 1021.0
20260506141508 47 304 0.0 0.0 0.00 0.00 0.00 89 1020.8
20260506140002 46 304 0.0 0.0 0.00 0.00 0.00 89 1020.5
20260506134601 45 304 0.0 0.0 0.00 0.00 0.00 89 1020.5
20260506134500 45 304 0.0 0.0 0.00 0.00 0.00 88 1020.6
20260506133114 45 304 0.0 0.0 0.00 0.00 0.00 88 1020.4
20260506131616 45 304 0.0 0.0 0.00 0.00 0.00 88 1020.0
20260506130059 45 304 0.0 0.0 0.00 0.00 0.00 88 1019.8
20260506124558 45 304 0.0 0.0 0.00 0.00 0.00 88 1019.8
20260506123058 45 304 0.0 0.0 0.00 0.00 0.00 88 1020.0
20260506121559 45 304 0.0 0.0 0.00 0.00 0.00 88 1020.1
20260506120103 45 304 0.0 0.0 0.00 0.00 0.00 88 1020.1
20260506114554 45 304 0.0 0.0 0.00 0.00 0.00 88 1020.2
20260506113053 45 304 0.0 0.0 0.00 0.00 0.00 87 1020.1
20260506111552 45 304 0.0 0.0 0.00 0.00 0.00 88 1020.1
20260506110101 46 304 0.0 0.0 0.00 0.00 0.00 87 1020.0
20260506104602 46 304 0.0 0.0 0.00 0.00 0.00 87 1020.0
20260506103049 46 304 0.0 0.0 0.00 0.00 0.00 87 1020.0
20260506101546 47 304 0.0 0.0 0.00 0.00 0.00 87 1019.9
20260506100053 47 304 0.0 0.0 0.00 0.00 0.00 87 1020.1
20260506094550 47 304 0.0 0.0 0.00 0.00 0.00 87 1019.9
20260506093042 47 304 0.0 0.0 0.00 0.00 0.00 86 1020.0
20260506091540 48 304 0.0 0.0 0.00 0.00 0.00 86 1020.0
20260506090040 48 304 0.0 0.0 0.00 0.00 0.00 86 1020.2
20260506084610 49 304 0.0 0.0 0.00 0.00 0.00 86 1020.4
20260506083037 49 304 0.0 0.0 0.00 0.00 0.00 86 1020.2
20260506081545 49 304 0.0 0.0 0.00 0.00 0.00 86 1020.5
20260506073027 51 304 0.0 0.0 0.00 0.00 0.00 85 1020.1
20260506071526 51 304 0.0 0.0 0.00 0.00 0.00 84 1020.1
20260506061519 52 304 0.0 0.0 0.00 0.00 0.00 83 1019.7
20260506044518 55 304 0.0 2.0 0.00 0.00 0.00 81 1019.2
20260506043013 55 303 0.0 2.0 0.00 0.00 0.00 80 1019.1
20260506041511 55 303 0.0 4.0 0.00 0.00 0.00 80 1019.0
20260506040010 56 302 0.0 2.0 0.00 0.00 0.00 78 1018.8
20260506034509 56 302 0.0 3.0 0.00 0.00 0.00 78 1018.5
20260506033007 56 302 0.0 3.0 0.00 0.00 0.00 77 1018.3
20260506031505 57 302 0.0 3.0 0.00 0.00 0.00 76 1018.1
20260506030005 57 302 0.0 1.0 0.00 0.00 0.00 75 1017.8
20260506024504 58 303 0.0 4.0 0.00 0.00 0.00 75 1017.4
20260506023004 58 305 1.0 8.0 0.00 0.00 0.00 75 1017.4
20260506021503 59 306 3.0 8.0 0.00 0.00 0.00 75 1017.3
20260506020002 59 309 4.0 9.0 0.00 0.00 0.00 75 1017.0
20260506014501 60 315 4.0 13.0 0.00 0.00 0.00 74 1016.9
20260506013003 61 317 2.0 12.0 0.00 0.00 0.00 74 1017.0
20260506011617 61 308 4.0 13.0 0.00 0.00 0.00 74 1016.9
20260506004600 63 315 1.0 12.0 0.00 0.00 0.00 73 1016.9
20260506003059 63 350 4.0 10.0 0.00 0.00 0.00 72 1016.9
20260506001559 63 280 1.0 11.0 0.00 0.00 0.00 72 1016.7
20260506000100 63 305 3.0 11.0 0.00 0.00 0.00 72 1016.8
20260505234557 63 327 5.0 13.0 0.00 0.00 0.00 73 1016.9
20260505233104 63 280 3.0 12.0 0.00 0.00 0.00 73 1016.8
20260505231604 63 300 4.0 13.0 0.00 0.00 0.00 71 1016.9
20260505230048 64 271 5.0 12.0 0.00 0.00 0.00 68 1016.9
20260505224545 65 315 3.0 11.0 0.00 0.00 0.00 69 1016.9
20260505223044 64 275 4.0 13.0 0.00 0.00 0.00 68 1016.9
20260505221541 64 331 5.0 11.0 0.00 0.00 0.00 69 1017.1
20260505220140 64 297 3.0 12.0 0.00 0.00 0.00 68 1017.1
20260505214551 63 277 6.0 17.0 0.00 0.00 0.00 70 1017.6
20260505213040 62 313 4.0 14.0 0.00 0.00 0.00 70 1017.8
20260505211536 62 292 3.0 15.0 0.00 0.00 0.00 69 1017.8
20260505210034 63 284 3.0 15.0 0.00 0.00 0.00 67 1017.7
20260505204534 62 293 6.0 15.0 0.00 0.00 0.00 68 1017.7
20260505203051 62 273 6.0 15.0 0.00 0.00 0.00 68 1017.8
20260505201538 63 315 5.0 14.0 0.00 0.00 0.00 68 1018.0
20260505200030 62 302 4.0 12.0 0.00 0.00 0.00 69 1017.9
20260505194529 63 288 4.0 13.0 0.00 0.00 0.00 68 1018.0
20260505193032 62 257 3.0 13.0 0.00 0.00 0.00 67 1018.1